Location: ?????????
(41.1143°N, 22.7905°E)
Time: 08:57:17
(UTC+00:00)

COSMO-SKYMED 1 - Pass Details

Date: 15 March 2026
Orbit: 576 x 578 km, 97.9° (Epoch: 19 April)

Event Time Altitude Azimuth Distance (km) Brightness Sun altitude
Rises 16:54:25 0° 14° (NNE) 2,800 5.8 -4.4°
Reaches altitude 10° 16:56:35 10° 15° (NNE) 1,896 4.9 -4.8°
Maximum altitude 17:00:41 78° 101° (ESE) 595 2.4 -5.6°
Drops below altitude 10° 17:04:46 10° 189° (S) 1,880 5.1 -6.4°
Sets 17:06:54 0° 191° (S) 2,773 6.0 -6.8°
